Time,TemperatureF,DewpointF,PressureIn,WindDirection,WindDirectionDegrees,WindSpeedMPH,WindSpeedGustMPH,Humidity,HourlyPrecipIn,Conditions,Clouds,dailyrainin,SoftwareType,DateUTC
2013-02-06 00:00:00,26.4,25.4,29.92,North,32767,-999.0,0.0,96,0.00,,,0.00,Wunderground v.1.15,2013-02-06 05:00:00,
2013-02-06 00:05:00,26.5,25.5,29.93,North,32767,-999.0,0.0,96,0.00,,,0.00,Wunderground v.1.15,2013-02-06 05:05:00,
2013-02-06 00:10:00,26.4,25.4,29.93,North,32767,-999.0,0.0,96,0.00,,,0.00,Wunderground v.1.15,2013-02-06 05:10:00,
2013-02-06 00:15:00,26.5,25.5,29.92,North,32767,-999.0,0.0,96,0.00,,,0.00,Wunderground v.1.15,2013-02-06 05:15:00,
2013-02-06 00:25:00,26.5,25.5,29.92,North,32767,-999.0,0.0,96,0.00,,,0.00,Wunderground v.1.15,2013-02-06 05:25:00,
2013-02-06 00:30:00,26.5,25.5,29.93,North,32767,-999.0,0.0,96,0.00,,,0.00,Wunderground v.1.15,2013-02-06 05:30:00,
2013-02-06 00:40:00,26.5,25.5,29.93,North,32767,-999.0,0.0,96,0.00,,,0.00,Wunderground v.1.15,2013-02-06 05:40:00,
2013-02-06 00:50:00,26.5,25.5,29.93,North,32767,-999.0,0.0,96,0.00,,,0.00,Wunderground v.1.15,2013-02-06 05:50:00,
2013-02-06 01:00:00,26.5,25.8,29.92,North,32767,-999.0,0.0,97,0.00,,,0.00,Wunderground v.1.15,2013-02-06 06:00:00,
2013-02-06 01:10:00,26.6,25.9,29.92,North,32767,-999.0,0.0,97,0.00,,,0.00,Wunderground v.1.15,2013-02-06 06:10:00,
2013-02-06 01:20:00,26.6,25.9,29.92,North,32767,-999.0,0.0,97,0.00,,,0.00,Wunderground v.1.15,2013-02-06 06:20:00,
2013-02-06 01:30:00,26.8,26.1,29.93,North,32767,-999.0,0.0,97,0.00,,,0.00,Wunderground v.1.15,2013-02-06 06:30:00,
2013-02-06 01:40:00,26.9,26.2,29.92,North,32767,-999.0,0.0,97,0.00,,,0.00,Wunderground v.1.15,2013-02-06 06:40:00,
2013-02-06 01:50:00,26.9,26.2,29.92,North,32767,-999.0,0.0,97,0.00,,,0.00,Wunderground v.1.15,2013-02-06 06:50:00,
2013-02-06 01:55:00,27.0,26.3,29.92,North,32767,-999.0,0.0,97,0.00,,,0.00,Wunderground v.1.15,2013-02-06 06:55:00,
2013-02-06 02:00:00,27.0,26.3,29.93,North,32767,-999.0,0.0,97,0.00,,,0.00,Wunderground v.1.15,2013-02-06 07:00:00,
2013-02-06 02:10:00,27.0,26.3,29.92,North,32767,-999.0,0.0,97,0.00,,,0.00,Wunderground v.1.15,2013-02-06 07:10:00,
2013-02-06 02:20:00,27.0,26.3,29.92,North,32767,-999.0,0.0,97,0.00,,,0.00,Wunderground v.1.15,2013-02-06 07:20:00,
2013-02-06 02:25:00,26.9,26.2,29.93,North,32767,-999.0,0.0,97,0.00,,,0.00,Wunderground v.1.15,2013-02-06 07:25:00,
2013-02-06 02:35:00,26.9,26.2,29.93,North,32767,-999.0,0.0,97,0.00,,,0.00,Wunderground v.1.15,2013-02-06 07:35:00,
2013-02-06 02:40:00,27.0,26.3,29.92,North,32767,-999.0,0.0,97,0.00,,,0.00,Wunderground v.1.15,2013-02-06 07:40:00,
2013-02-06 02:50:00,27.0,26.3,29.93,North,32767,-999.0,0.0,97,0.00,,,0.00,Wunderground v.1.15,2013-02-06 07:50:00,
2013-02-06 02:55:00,27.0,26.3,29.93,North,32767,-999.0,0.0,97,0.00,,,0.00,Wunderground v.1.15,2013-02-06 07:55:00,
2013-02-06 03:00:00,27.0,26.3,29.93,North,32767,-999.0,0.0,97,0.00,,,0.00,Wunderground v.1.15,2013-02-06 08:00:00,
2013-02-06 03:10:00,27.0,26.3,29.92,North,32767,-999.0,0.0,97,0.00,,,0.00,Wunderground v.1.15,2013-02-06 08:10:00,
2013-02-06 03:20:00,26.9,26.2,29.92,North,32767,-999.0,0.0,97,0.00,,,0.00,Wunderground v.1.15,2013-02-06 08:20:00,
2013-02-06 03:25:00,26.8,26.1,29.93,North,32767,-999.0,0.0,97,0.00,,,0.00,Wunderground v.1.15,2013-02-06 08:25:00,
2013-02-06 03:30:00,26.8,26.1,29.93,North,32767,-999.0,0.0,97,0.00,,,0.00,Wunderground v.1.15,2013-02-06 08:30:00,
2013-02-06 03:40:00,26.7,26.0,29.94,North,32767,-999.0,0.0,97,0.00,,,0.00,Wunderground v.1.15,2013-02-06 08:40:00,
2013-02-06 03:50:00,26.6,25.9,29.94,North,32767,-999.0,0.0,97,0.00,,,0.00,Wunderground v.1.15,2013-02-06 08:50:00,
2013-02-06 03:55:00,26.6,25.9,29.94,North,32767,-999.0,0.0,97,0.00,,,0.00,Wunderground v.1.15,2013-02-06 08:55:00,
2013-02-06 04:00:00,26.5,25.8,29.94,North,32767,-999.0,0.0,97,0.00,,,0.00,Wunderground v.1.15,2013-02-06 09:00:00,
2013-02-06 04:10:00,26.3,25.6,29.95,North,32767,-999.0,0.0,97,0.00,,,0.00,Wunderground v.1.15,2013-02-06 09:10:00,
2013-02-06 04:20:00,26.1,25.4,29.95,North,32767,-999.0,0.0,97,0.00,,,0.00,Wunderground v.1.15,2013-02-06 09:20:00,
2013-02-06 04:25:00,26.0,25.3,29.95,North,32767,-999.0,0.0,97,0.00,,,0.00,Wunderground v.1.15,2013-02-06 09:25:00,
2013-02-06 04:35:00,25.7,25.0,29.95,North,32767,-999.0,0.0,97,0.00,,,0.00,Wunderground v.1.15,2013-02-06 09:35:00,
2013-02-06 04:45:00,25.3,24.3,29.96,North,32767,-999.0,0.0,96,0.00,,,0.00,Wunderground v.1.15,2013-02-06 09:45:00,
2013-02-06 04:55:00,25.3,24.6,29.97,North,32767,-999.0,0.0,97,0.00,,,0.00,Wunderground v.1.15,2013-02-06 09:55:00,
2013-02-06 05:00:00,25.5,24.8,29.97,North,32767,-999.0,0.0,97,0.00,,,0.00,Wunderground v.1.15,2013-02-06 10:00:00,
2013-02-06 05:10:00,25.4,24.7,29.97,North,32767,-999.0,0.0,97,0.00,,,0.00,Wunderground v.1.15,2013-02-06 10:10:00,
2013-02-06 05:15:00,25.5,24.8,29.98,North,32767,-999.0,0.0,97,0.00,,,0.00,Wunderground v.1.15,2013-02-06 10:15:00,
2013-02-06 05:25:00,25.7,25.0,29.98,North,32767,-999.0,0.0,97,0.00,,,0.00,Wunderground v.1.15,2013-02-06 10:25:00,
2013-02-06 05:30:00,25.7,25.0,29.98,North,32767,-999.0,0.0,97,0.00,,,0.00,Wunderground v.1.15,2013-02-06 10:30:00,
2013-02-06 05:40:00,25.7,25.0,29.98,North,32767,-999.0,0.0,97,0.00,,,0.00,Wunderground v.1.15,2013-02-06 10:40:00,
2013-02-06 05:50:00,25.8,25.1,29.99,North,32767,-999.0,0.0,97,0.00,,,0.00,Wunderground v.1.15,2013-02-06 10:50:00,
2013-02-06 06:00:00,25.8,25.1,30.00,North,32767,-999.0,0.0,97,0.00,,,0.00,Wunderground v.1.15,2013-02-06 11:00:00,
2013-02-06 06:10:00,25.8,25.1,30.00,North,32767,-999.0,0.0,97,0.00,,,0.00,Wunderground v.1.15,2013-02-06 11:10:00,
2013-02-06 06:20:00,25.7,24.7,30.00,North,32767,-999.0,0.0,96,0.00,,,0.00,Wunderground v.1.15,2013-02-06 11:20:00,
2013-02-06 06:30:00,25.6,24.6,30.01,North,32767,-999.0,0.0,96,0.00,,,0.00,Wunderground v.1.15,2013-02-06 11:30:00,
2013-02-06 06:40:00,25.6,24.6,30.01,North,32767,-999.0,0.0,96,0.00,,,0.00,Wunderground v.1.15,2013-02-06 11:40:00,
2013-02-06 06:50:00,25.4,24.4,30.00,North,32767,-999.0,0.0,96,0.00,,,0.00,Wunderground v.1.15,2013-02-06 11:50:00,
2013-02-06 07:00:00,25.1,24.1,30.02,North,32767,-999.0,0.0,96,0.00,,,0.00,Wunderground v.1.15,2013-02-06 12:00:00,
2013-02-06 07:10:00,24.9,23.7,30.03,North,32767,-999.0,0.0,95,0.00,,,0.00,Wunderground v.1.15,2013-02-06 12:10:00,
2013-02-06 07:20:00,24.9,23.9,30.04,North,32767,-999.0,0.0,96,0.00,,,0.00,Wunderground v.1.15,2013-02-06 12:20:00,
2013-02-06 07:30:00,24.7,23.5,30.06,North,32767,-999.0,0.0,95,0.00,,,0.00,Wunderground v.1.15,2013-02-06 12:30:00,
2013-02-06 07:40:00,24.8,23.6,30.06,North,32767,-999.0,0.0,95,0.00,,,0.00,Wunderground v.1.15,2013-02-06 12:40:00,
2013-02-06 07:45:00,24.9,23.7,30.06,North,32767,-999.0,0.0,95,0.00,,,0.00,Wunderground v.1.15,2013-02-06 12:45:00,
2013-02-06 07:55:00,24.9,23.7,30.07,North,32767,-999.0,0.0,95,0.00,,,0.00,Wunderground v.1.15,2013-02-06 12:55:00,
2013-02-06 08:00:00,25.1,23.9,30.07,NW,310,0.0,0.0,95,0.00,,,0.00,Wunderground v.1.15,2013-02-06 13:00:00,
2013-02-06 08:10:00,25.6,24.4,30.07,NW,313,0.0,0.0,95,0.00,,,0.00,Wunderground v.1.15,2013-02-06 13:10:00,
2013-02-06 08:20:00,26.0,24.5,30.08,NW,314,0.0,0.0,94,0.00,,,0.00,Wunderground v.1.15,2013-02-06 13:20:00,
2013-02-06 08:25:00,26.2,24.7,30.07,NW,314,0.0,0.0,94,0.00,,,0.00,Wunderground v.1.15,2013-02-06 13:25:00,
2013-02-06 08:30:00,26.5,24.8,30.08,NW,314,0.0,0.0,93,0.00,,,0.00,Wunderground v.1.15,2013-02-06 13:30:00,
2013-02-06 08:35:00,26.9,25.1,30.08,NW,314,0.0,0.0,93,0.00,,,0.00,Wunderground v.1.15,2013-02-06 13:35:00,
2013-02-06 08:45:00,27.5,25.5,30.08,NW,314,0.0,0.0,92,0.00,,,0.00,Wunderground v.1.15,2013-02-06 13:45:00,
2013-02-06 08:55:00,27.8,25.5,30.08,NW,314,0.0,0.0,91,0.00,,,0.00,Wunderground v.1.15,2013-02-06 13:55:00,
2013-02-06 09:00:00,27.8,25.0,30.08,NW,314,0.0,0.0,89,0.00,,,0.00,Wunderground v.1.15,2013-02-06 14:00:00,
2013-02-06 09:10:00,27.7,24.9,30.09,NW,315,0.0,0.0,89,0.00,,,0.00,Wunderground v.1.15,2013-02-06 14:10:00,
2013-02-06 09:20:00,27.8,25.0,30.09,NNW,337,0.0,0.0,89,0.00,,,0.00,Wunderground v.1.15,2013-02-06 14:20:00,
2013-02-06 09:30:00,27.9,24.8,30.10,NNE,20,0.0,0.0,88,0.00,,,0.00,Wunderground v.1.15,2013-02-06 14:30:00,
2013-02-06 09:40:00,28.1,25.0,30.11,NNW,330,0.0,0.0,88,0.00,,,0.00,Wunderground v.1.15,2013-02-06 14:40:00,
2013-02-06 09:50:00,28.4,25.6,30.11,NW,307,0.0,0.0,89,0.00,,,0.00,Wunderground v.1.15,2013-02-06 14:50:00,
2013-02-06 10:00:00,28.8,25.7,30.12,NW,311,0.0,0.0,88,0.00,,,0.00,Wunderground v.1.15,2013-02-06 15:00:00,
2013-02-06 10:10:00,29.0,25.3,30.11,NW,306,0.0,0.0,86,0.00,,,0.00,Wunderground v.1.15,2013-02-06 15:10:00,
2013-02-06 10:20:00,29.3,25.4,30.11,NW,306,0.0,0.0,85,0.00,,,0.00,Wunderground v.1.15,2013-02-06 15:20:00,
2013-02-06 10:25:00,29.6,25.4,30.11,WNW,288,0.0,0.0,84,0.00,,,0.00,Wunderground v.1.15,2013-02-06 15:25:00,
2013-02-06 10:35:00,30.1,25.6,30.11,WNW,298,0.0,0.0,83,0.00,,,0.00,Wunderground v.1.15,2013-02-06 15:35:00,
2013-02-06 10:45:00,30.5,25.1,30.11,NW,305,0.0,0.0,80,0.00,,,0.00,Wunderground v.1.15,2013-02-06 15:45:00,
2013-02-06 10:55:00,30.9,24.8,30.11,North,5,0.0,0.0,78,0.00,,,0.00,Wunderground v.1.15,2013-02-06 15:55:00,
2013-02-06 11:00:00,31.0,25.2,30.11,North,355,0.0,0.0,79,0.00,,,0.00,Wunderground v.1.15,2013-02-06 16:00:00,
2013-02-06 11:10:00,31.2,25.4,30.11,NNE,24,0.0,0.0,79,0.00,,,0.00,Wunderground v.1.15,2013-02-06 16:10:00,
2013-02-06 11:20:00,31.6,24.9,30.12,NNE,13,0.0,0.0,76,0.00,,,0.00,Wunderground v.1.15,2013-02-06 16:20:00,
2013-02-06 11:25:00,31.4,24.7,30.12,NNW,342,0.0,0.0,76,0.00,,,0.00,Wunderground v.1.15,2013-02-06 16:25:00,
2013-02-06 11:30:00,31.3,24.6,30.12,NNE,32,0.0,0.0,76,0.00,,,0.00,Wunderground v.1.15,2013-02-06 16:30:00,
2013-02-06 11:40:00,31.4,25.3,30.12,NNW,344,0.0,0.0,78,0.00,,,0.00,Wunderground v.1.15,2013-02-06 16:40:00,
2013-02-06 11:50:00,32.6,24.9,30.12,NE,55,0.0,0.0,73,0.00,,,0.00,Wunderground v.1.15,2013-02-06 16:50:00,
2013-02-06 11:55:00,32.3,24.6,30.12,NE,52,0.0,0.0,73,0.00,,,0.00,Wunderground v.1.15,2013-02-06 16:55:00,
2013-02-06 12:00:00,32.2,24.5,30.12,NNW,347,0.0,0.0,73,0.00,,,0.00,Wunderground v.1.15,2013-02-06 17:00:00,
2013-02-06 12:10:00,32.1,24.4,30.12,NE,44,0.0,0.0,73,0.00,,,0.00,Wunderground v.1.15,2013-02-06 17:10:00,
2013-02-06 12:15:00,32.0,23.3,30.12,NNE,18,0.0,0.0,70,0.00,,,0.00,Wunderground v.1.15,2013-02-06 17:15:00,
2013-02-06 12:20:00,32.1,23.4,30.12,NNE,31,0.0,0.0,70,0.00,,,0.00,Wunderground v.1.15,2013-02-06 17:20:00,
2013-02-06 12:30:00,32.2,22.8,30.12,NE,38,0.0,0.0,68,0.00,,,0.00,Wunderground v.1.15,2013-02-06 17:30:00,
2013-02-06 12:40:00,32.3,21.8,30.12,ENE,59,0.0,0.0,65,0.00,,,0.00,Wunderground v.1.15,2013-02-06 17:40:00,
2013-02-06 12:50:00,32.3,22.2,30.12,NE,53,0.0,0.0,66,0.00,,,0.00,Wunderground v.1.15,2013-02-06 17:50:00,
2013-02-06 12:55:00,32.8,22.3,30.12,NW,322,0.0,0.0,65,0.00,,,0.00,Wunderground v.1.15,2013-02-06 17:55:00,
2013-02-06 13:00:00,33.0,21.8,30.12,NNW,332,0.0,0.0,63,0.00,,,0.00,Wunderground v.1.15,2013-02-06 18:00:00,
2013-02-06 13:10:00,33.2,21.6,30.12,NE,45,0.0,0.0,62,0.00,,,0.00,Wunderground v.1.15,2013-02-06 18:10:00,
2013-02-06 13:15:00,33.1,21.9,30.12,North,360,0.0,0.0,63,0.00,,,0.00,Wunderground v.1.15,2013-02-06 18:15:00,
2013-02-06 13:25:00,32.9,22.8,30.13,North,360,0.0,0.0,66,0.00,,,0.00,Wunderground v.1.15,2013-02-06 18:25:00,
2013-02-06 13:35:00,32.7,22.9,30.13,North,5,0.0,0.0,67,0.00,,,0.00,Wunderground v.1.15,2013-02-06 18:35:00,
2013-02-06 13:45:00,32.6,22.8,30.13,NE,36,0.0,0.0,67,0.00,,,0.00,Wunderground v.1.15,2013-02-06 18:45:00,
2013-02-06 13:50:00,32.6,22.8,30.13,NNE,20,0.0,0.0,67,0.00,,,0.00,Wunderground v.1.15,2013-02-06 18:50:00,
2013-02-06 13:55:00,32.6,22.8,30.14,NNE,15,0.0,0.0,67,0.00,,,0.00,Wunderground v.1.15,2013-02-06 18:55:00,
2013-02-06 14:00:00,32.4,22.7,30.14,ENE,57,0.0,0.0,67,0.00,,,0.00,Wunderground v.1.15,2013-02-06 19:00:00,
2013-02-06 14:10:00,32.7,23.6,30.14,NNE,14,0.0,0.0,69,0.00,,,0.00,Wunderground v.1.15,2013-02-06 19:10:00,
2013-02-06 14:20:00,34.1,23.6,30.14,ENE,59,0.0,0.0,65,0.00,,,0.01,Wunderground v.1.15,2013-02-06 19:20:00,
2013-02-06 14:30:00,34.2,24.7,30.14,ENE,65,0.0,0.0,68,0.00,,,0.01,Wunderground v.1.15,2013-02-06 19:30:00,
2013-02-06 14:40:00,34.1,23.9,30.14,NE,36,0.0,0.0,66,0.00,,,0.01,Wunderground v.1.15,2013-02-06 19:40:00,
2013-02-06 14:45:00,34.2,23.7,30.14,NE,47,0.0,0.0,65,0.00,,,0.01,Wunderground v.1.15,2013-02-06 19:45:00,
2013-02-06 14:55:00,34.2,23.7,30.14,NE,55,0.0,0.0,65,0.00,,,0.01,Wunderground v.1.15,2013-02-06 19:55:00,
2013-02-06 15:00:00,34.3,23.0,30.14,NE,46,0.0,0.0,63,0.00,,,0.01,Wunderground v.1.15,2013-02-06 20:00:00,
2013-02-06 15:05:00,33.8,23.6,30.14,NE,42,0.0,0.0,66,0.00,,,0.01,Wunderground v.1.15,2013-02-06 20:05:00,
2013-02-06 15:15:00,32.4,22.3,30.16,NE,55,0.0,0.0,66,0.00,,,0.01,Wunderground v.1.15,2013-02-06 20:15:00,
2013-02-06 15:25:00,32.0,21.9,30.16,NE,49,0.0,0.0,66,0.00,,,0.01,Wunderground v.1.15,2013-02-06 20:25:00,
2013-02-06 15:35:00,32.0,22.3,30.17,NE,37,0.0,0.0,67,0.00,,,0.01,Wunderground v.1.15,2013-02-06 20:35:00,
2013-02-06 15:40:00,32.2,22.1,30.17,NE,45,0.0,0.0,66,0.00,,,0.01,Wunderground v.1.15,2013-02-06 20:40:00,
2013-02-06 15:50:00,32.7,21.9,30.17,ENE,65,0.0,0.0,64,0.00,,,0.01,Wunderground v.1.15,2013-02-06 20:50:00,
2013-02-06 16:00:00,32.8,20.0,30.17,NNE,14,0.0,0.0,59,0.00,,,0.01,Wunderground v.1.15,2013-02-06 21:00:00,
2013-02-06 16:10:00,33.2,20.8,30.18,NNE,23,0.0,0.0,60,0.00,,,0.01,Wunderground v.1.15,2013-02-06 21:10:00,
2013-02-06 16:20:00,33.3,20.1,30.18,NE,46,0.0,0.0,58,0.00,,,0.01,Wunderground v.1.15,2013-02-06 21:20:00,
2013-02-06 16:30:00,32.8,19.2,30.18,NE,34,0.0,0.0,57,0.00,,,0.01,Wunderground v.1.15,2013-02-06 21:30:00,
2013-02-06 16:40:00,32.3,18.8,30.19,NE,42,0.0,0.0,57,0.00,,,0.01,Wunderground v.1.15,2013-02-06 21:40:00,
2013-02-06 16:50:00,32.3,17.5,30.19,NE,48,0.0,0.0,54,0.00,,,0.01,Wunderground v.1.15,2013-02-06 21:50:00,
2013-02-06 17:00:00,32.2,17.0,30.20,ENE,76,0.0,0.0,53,0.00,,,0.01,Wunderground v.1.15,2013-02-06 22:00:00,
2013-02-06 17:09:00,31.9,17.1,30.20,NNE,28,0.0,0.0,54,0.00,,,0.01,Wunderground v.1.15,2013-02-06 22:09:00,
2013-02-06 17:15:00,31.7,16.9,30.21,North,32767,-999.0,0.0,54,0.00,,,0.01,Wunderground v.1.15,2013-02-06 22:15:00,
2013-02-06 17:25:00,31.1,16.4,30.22,North,32767,-999.0,0.0,54,0.00,,,0.01,Wunderground v.1.15,2013-02-06 22:25:00,
2013-02-06 17:35:00,31.0,15.4,30.22,North,32767,-999.0,0.0,52,0.00,,,0.01,Wunderground v.1.15,2013-02-06 22:35:00,
2013-02-06 17:40:00,31.1,15.5,30.23,North,32767,-999.0,0.0,52,0.00,,,0.01,Wunderground v.1.15,2013-02-06 22:40:00,
2013-02-06 17:50:00,30.6,15.5,30.24,North,32767,-999.0,0.0,53,0.00,,,0.01,Wunderground v.1.15,2013-02-06 22:50:00,
2013-02-06 18:00:00,30.5,15.4,30.25,North,32767,-999.0,0.0,53,0.00,,,0.01,Wunderground v.1.15,2013-02-06 23:00:00,
2013-02-06 18:10:00,30.4,15.3,30.25,North,32767,-999.0,0.0,53,0.00,,,0.01,Wunderground v.1.15,2013-02-06 23:10:00,
2013-02-06 18:19:00,30.0,16.2,30.26,North,32767,-999.0,0.0,56,0.00,,,0.01,Wunderground v.1.15,2013-02-06 23:19:00,
2013-02-06 18:25:00,30.1,15.4,30.26,North,32767,-999.0,0.0,54,0.00,,,0.01,Wunderground v.1.15,2013-02-06 23:25:00,
2013-02-06 18:35:00,29.9,15.3,30.26,North,32767,-999.0,0.0,54,0.00,,,0.01,Wunderground v.1.15,2013-02-06 23:35:00,
2013-02-06 18:45:00,30.1,15.0,30.27,North,32767,-999.0,0.0,53,0.00,,,0.01,Wunderground v.1.15,2013-02-06 23:45:00,
2013-02-06 18:50:00,29.6,15.4,30.27,North,32767,-999.0,0.0,55,0.00,,,0.01,Wunderground v.1.15,2013-02-06 23:50:00,
2013-02-06 19:00:00,29.6,15.4,30.27,North,32767,-999.0,0.0,55,0.00,,,0.01,Wunderground v.1.15,2013-02-07 00:00:00,
2013-02-06 19:10:00,29.4,14.8,30.28,North,32767,-999.0,0.0,54,0.00,,,0.01,Wunderground v.1.15,2013-02-07 00:10:00,
2013-02-06 19:19:00,29.0,15.2,30.28,North,32767,-999.0,0.0,56,0.00,,,0.01,Wunderground v.1.15,2013-02-07 00:19:00,
2013-02-06 19:25:00,28.9,15.2,30.28,North,32767,-999.0,0.0,56,0.00,,,0.01,Wunderground v.1.15,2013-02-07 00:25:00,
2013-02-06 19:35:00,28.8,15.1,30.28,North,32767,-999.0,0.0,56,0.00,,,0.01,Wunderground v.1.15,2013-02-07 00:35:00,
2013-02-06 19:45:00,28.8,14.6,30.29,North,32767,-999.0,0.0,55,0.00,,,0.01,Wunderground v.1.15,2013-02-07 00:45:00,
2013-02-06 19:50:00,28.7,15.4,30.29,North,32767,-999.0,0.0,57,0.00,,,0.01,Wunderground v.1.15,2013-02-07 00:50:00,
2013-02-06 19:55:00,28.4,15.1,30.30,North,32767,-999.0,0.0,57,0.00,,,0.01,Wunderground v.1.15,2013-02-07 00:55:00,
2013-02-06 20:00:00,28.4,15.1,30.30,North,32767,-999.0,0.0,57,0.00,,,0.01,Wunderground v.1.15,2013-02-07 01:00:00,
2013-02-06 20:10:00,28.3,15.0,30.30,North,32767,-999.0,0.0,57,0.00,,,0.01,Wunderground v.1.15,2013-02-07 01:10:00,
2013-02-06 20:15:00,28.2,15.3,30.30,North,32767,-999.0,0.0,58,0.00,,,0.01,Wunderground v.1.15,2013-02-07 01:15:00,
2013-02-06 20:25:00,27.8,15.3,30.30,North,32767,-999.0,0.0,59,0.00,,,0.01,Wunderground v.1.15,2013-02-07 01:25:00,
2013-02-06 20:30:00,27.7,14.8,30.30,North,32767,-999.0,0.0,58,0.00,,,0.01,Wunderground v.1.15,2013-02-07 01:30:00,
2013-02-06 20:35:00,27.5,15.4,30.31,North,32767,-999.0,0.0,60,0.00,,,0.01,Wunderground v.1.15,2013-02-07 01:35:00,
2013-02-06 20:45:00,27.2,15.1,30.31,North,32767,-999.0,0.0,60,0.00,,,0.01,Wunderground v.1.15,2013-02-07 01:45:00,
2013-02-06 20:55:00,27.1,15.4,30.31,North,32767,-999.0,0.0,61,0.00,,,0.01,Wunderground v.1.15,2013-02-07 01:55:00,
2013-02-06 21:00:00,27.1,15.0,30.31,North,32767,-999.0,0.0,60,0.00,,,0.01,Wunderground v.1.15,2013-02-07 02:00:00,
2013-02-06 21:05:00,26.9,15.2,30.31,North,32767,-999.0,0.0,61,0.00,,,0.01,Wunderground v.1.15,2013-02-07 02:05:00,
2013-02-06 21:15:00,26.3,14.7,30.31,North,32767,-999.0,0.0,61,0.00,,,0.01,Wunderground v.1.15,2013-02-07 02:15:00,
2013-02-06 21:25:00,26.2,14.2,30.32,North,32767,-999.0,0.0,60,0.00,,,0.01,Wunderground v.1.15,2013-02-07 02:25:00,
2013-02-06 21:35:00,25.8,13.8,30.32,North,32767,-999.0,0.0,60,0.00,,,0.01,Wunderground v.1.15,2013-02-07 02:35:00,
2013-02-06 21:40:00,25.4,13.4,30.33,North,32767,-999.0,0.0,60,0.00,,,0.01,Wunderground v.1.15,2013-02-07 02:40:00,
2013-02-06 21:50:00,25.4,13.4,30.32,North,32767,-999.0,0.0,60,0.00,,,0.01,Wunderground v.1.15,2013-02-07 02:50:00,
2013-02-06 21:55:00,25.2,13.2,30.32,North,32767,-999.0,0.0,60,0.00,,,0.01,Wunderground v.1.15,2013-02-07 02:55:00,
2013-02-06 22:00:00,25.1,13.2,30.32,North,32767,-999.0,0.0,60,0.00,,,0.01,Wunderground v.1.15,2013-02-07 03:00:00,
2013-02-06 22:05:00,25.1,12.8,30.32,North,32767,-999.0,0.0,59,0.00,,,0.01,Wunderground v.1.15,2013-02-07 03:05:00,
2013-02-06 22:15:00,25.2,12.1,30.33,North,32767,-999.0,0.0,57,0.00,,,0.01,Wunderground v.1.15,2013-02-07 03:15:00,
2013-02-06 22:25:00,25.0,11.9,30.34,North,32767,-999.0,0.0,57,0.00,,,0.01,Wunderground v.1.15,2013-02-07 03:25:00,
2013-02-06 22:30:00,25.0,12.3,30.33,North,32767,-999.0,0.0,58,0.00,,,0.01,Wunderground v.1.15,2013-02-07 03:30:00,
2013-02-06 22:35:00,24.9,12.2,30.33,North,32767,-999.0,0.0,58,0.00,,,0.01,Wunderground v.1.15,2013-02-07 03:35:00,
2013-02-06 22:40:00,24.9,11.8,30.34,North,32767,-999.0,0.0,57,0.00,,,0.01,Wunderground v.1.15,2013-02-07 03:40:00,
2013-02-06 22:50:00,24.7,12.0,30.34,North,32767,-999.0,0.0,58,0.00,,,0.01,Wunderground v.1.15,2013-02-07 03:50:00,
2013-02-06 23:00:00,24.7,12.0,30.34,North,32767,-999.0,0.0,58,0.00,,,0.01,Wunderground v.1.15,2013-02-07 04:00:00,
2013-02-06 23:09:00,24.3,12.0,30.35,North,32767,-999.0,0.0,59,0.00,,,0.01,Wunderground v.1.15,2013-02-07 04:09:00,
2013-02-06 23:15:00,24.2,11.9,30.34,North,32767,-999.0,0.0,59,0.00,,,0.01,Wunderground v.1.15,2013-02-07 04:15:00,
2013-02-06 23:25:00,23.8,11.5,30.34,North,32767,-999.0,0.0,59,0.00,,,0.01,Wunderground v.1.15,2013-02-07 04:25:00,
2013-02-06 23:30:00,23.7,11.4,30.34,North,32767,-999.0,0.0,59,0.00,,,0.01,Wunderground v.1.15,2013-02-07 04:30:00,
2013-02-06 23:40:00,23.5,11.3,30.34,North,32767,-999.0,0.0,59,0.00,,,0.01,Wunderground v.1.15,2013-02-07 04:40:00,
2013-02-06 23:45:00,23.6,11.7,30.35,North,32767,-999.0,0.0,60,0.00,,,0.01,Wunderground v.1.15,2013-02-07 04:45:00,
2013-02-06 23:55:00,23.3,11.1,30.34,North,32767,-999.0,0.0,59,0.00,,,0.01,Wunderground v.1.15,2013-02-07 04:55:00,